owner,sensor,date,latitude,longitude,vertical_datum,sea_water_practical_salinity,qcFlag 
DISL,ioos:station:DISL:DISL:1,2009-06-01T00:00:00Z,30.2513,-88.0778,3.977,8.56,1111122 
DISL,ioos:station:DISL:DISL:1,2009-06-01T00:30:00Z,30.2513,-88.0778,4.014,8.71,1111122 
DISL,ioos:station:DISL:DISL:1,2009-06-01T01:00:00Z,30.2513,-88.0778,3.937,9.0,1111122 
DISL,ioos:station:DISL:DISL:1,2009-06-01T01:30:00Z,30.2513,-88.0778,3.943,9.2,1111122 
DISL,ioos:station:DISL:DISL:1,2009-06-01T02:00:00Z,30.2513,-88.0778,3.923,9.25,1111122 
DISL,ioos:station:DISL:DISL:1,2009-06-01T02:30:00Z,30.2513,-88.0778,3.905,9.29,1111122 
DISL,ioos:station:DISL:DISL:1,2009-06-01T03:00:00Z,30.2513,-88.0778,3.914,9.13,1111122 
DISL,ioos:station:DISL:DISL:1,2009-06-01T03:30:00Z,30.2513,-88.0778,3.989,8.96,1111122 
DISL,ioos:station:DISL:DISL:1,2009-06-01T04:00:00Z,30.2513,-88.0778,4.142,6.75,1111122 
DISL,ioos:station:DISL:DISL:1,2009-06-01T04:30:00Z,30.2513,-88.0778,4.22,5.82,1111122 
DISL,ioos:station:DISL:DISL:1,2009-06-01T05:00:00Z,30.2513,-88.0778,4.27,5.86,1111122 
DISL,ioos:station:DISL:DISL:1,2009-06-01T05:30:00Z,30.2513,-88.0778,4.317,6.04,1111122 
DISL,ioos:station:DISL:DISL:1,2009-06-01T06:00:00Z,30.2513,-88.0778,4.313,6.0,1111122 
DISL,ioos:station:DISL:DISL:1,2009-06-01T06:30:00Z,30.2513,-88.0778,4.355,5.84,1111122 
DISL,ioos:station:DISL:DISL:1,2009-06-01T07:00:00Z,30.2513,-88.0778,4.29,7.23,1111122 
DISL,ioos:station:DISL:DISL:1,2009-06-01T07:30:00Z,30.2513,-88.0778,4.265,7.44,1111122 
DISL,ioos:station:DISL:DISL:1,2009-06-01T08:00:00Z,30.2513,-88.0778,4.214,8.59,1111122 
DISL,ioos:station:DISL:DISL:1,2009-06-01T08:30:00Z,30.2513,-88.0778,4.25,9.16,1111122 
DISL,ioos:station:DISL:DISL:1,2009-06-01T09:00:00Z,30.2513,-88.0778,4.245,8.85,1111122 
DISL,ioos:station:DISL:DISL:1,2009-06-01T09:30:00Z,30.2513,-88.0778,4.238,8.73,1111122 
DISL,ioos:station:DISL:DISL:1,2009-06-01T10:00:00Z,30.2513,-88.0778,4.288,8.65,1111122 
DISL,ioos:station:DISL:DISL:1,2009-06-01T10:30:00Z,30.2513,-88.0778,4.305,9.09,1111122 
DISL,ioos:station:DISL:DISL:1,2009-06-01T11:00:00Z,30.2513,-88.0778,4.295,9.07,1111122 
DISL,ioos:station:DISL:DISL:1,2009-06-01T11:30:00Z,30.2513,-88.0778,4.405,9.05,1111122 
DISL,ioos:station:DISL:DISL:1,2009-06-01T12:00:00Z,30.2513,-88.0778,4.455,8.95,1111122 
DISL,ioos:station:DISL:DISL:1,2009-06-01T12:30:00Z,30.2513,-88.0778,4.552,5.28,1111122 
DISL,ioos:station:DISL:DISL:1,2009-06-01T13:00:00Z,30.2513,-88.0778,4.548,8.96,1111122 
DISL,ioos:station:DISL:DISL:1,2009-06-01T13:30:00Z,30.2513,-88.0778,4.605,6.17,1111122 
DISL,ioos:station:DISL:DISL:1,2009-06-01T14:00:00Z,30.2513,-88.0778,4.617,6.68,1111122 
DISL,ioos:station:DISL:DISL:1,2009-06-01T14:30:00Z,30.2513,-88.0778,4.522,7.45,1111122 
DISL,ioos:station:DISL:DISL:1,2009-06-01T15:00:00Z,30.2513,-88.0778,5.636,6.27,1111122 
DISL,ioos:station:DISL:DISL:1,2009-06-01T15:30:00Z,30.2513,-88.0778,5.65,4.37,1111122 
DISL,ioos:station:DISL:DISL:1,2009-06-01T16:00:00Z,30.2513,-88.0778,5.558,4.13,1111122 
DISL,ioos:station:DISL:DISL:1,2009-06-01T16:30:00Z,30.2513,-88.0778,5.472,3.94,1111122 
DISL,ioos:station:DISL:DISL:1,2009-06-01T17:00:00Z,30.2513,-88.0778,5.424,3.89,1111122 
DISL,ioos:station:DISL:DISL:1,2009-06-01T17:30:00Z,30.2513,-88.0778,5.356,3.87,1111122 
DISL,ioos:station:DISL:DISL:1,2009-06-01T18:00:00Z,30.2513,-88.0778,5.207,3.84,1111122 
DISL,ioos:station:DISL:DISL:1,2009-06-01T18:30:00Z,30.2513,-88.0778,5.12,3.56,1111122 
DISL,ioos:station:DISL:DISL:1,2009-06-01T19:00:00Z,30.2513,-88.0778,5.021,3.51,1111122 
DISL,ioos:station:DISL:DISL:1,2009-06-01T19:30:00Z,30.2513,-88.0778,5.023,3.36,1111122 
DISL,ioos:station:DISL:DISL:1,2009-06-01T20:00:00Z,30.2513,-88.0778,4.898,3.25,1111122 
DISL,ioos:station:DISL:DISL:1,2009-06-01T20:30:00Z,30.2513,-88.0778,4.86,3.17,1111122 
DISL,ioos:station:DISL:DISL:1,2009-06-01T21:00:00Z,30.2513,-88.0778,4.821,3.23,1111122 
DISL,ioos:station:DISL:DISL:1,2009-06-01T21:30:00Z,30.2513,-88.0778,4.823,3.32,1111122 
DISL,ioos:station:DISL:DISL:1,2009-06-01T22:00:00Z,30.2513,-88.0778,4.856,3.4,1111122 
DISL,ioos:station:DISL:DISL:1,2009-06-01T22:30:00Z,30.2513,-88.0778,4.747,3.42,1111122 
DISL,ioos:station:DISL:DISL:1,2009-06-01T23:00:00Z,30.2513,-88.0778,4.81,3.43,1111122 
DISL,ioos:station:DISL:DISL:1,2009-06-01T23:30:00Z,30.2513,-88.0778,4.952,3.51,1111122 
DISL,ioos:station:DISL:DISL:1,2009-06-02T00:00:00Z,30.2513,-88.0778,4.881,3.53,1111122 
DISL,ioos:station:DISL:DISL:1,2009-06-02T00:30:00Z,30.2513,-88.0778,4.983,3.57,1111122 
DISL,ioos:station:DISL:DISL:1,2009-06-02T01:00:00Z,30.2513,-88.0778,5.037,3.7,1111122 
DISL,ioos:station:DISL:DISL:1,2009-06-02T01:30:00Z,30.2513,-88.0778,5.16,4.69,1111122 
DISL,ioos:station:DISL:DISL:1,2009-06-02T02:00:00Z,30.2513,-88.0778,5.236,5.26,1111122 
DISL,ioos:station:DISL:DISL:1,2009-06-02T02:30:00Z,30.2513,-88.0778,5.25,5.64,1111122 
DISL,ioos:station:DISL:DISL:1,2009-06-02T03:00:00Z,30.2513,-88.0778,5.237,5.81,1111122 
DISL,ioos:station:DISL:DISL:1,2009-06-02T03:30:00Z,30.2513,-88.0778,5.271,5.89,1111122 
DISL,ioos:station:DISL:DISL:1,2009-06-02T04:00:00Z,30.2513,-88.0778,5.361,6.22,1111122 
DISL,ioos:station:DISL:DISL:1,2009-06-02T04:30:00Z,30.2513,-88.0778,5.352,6.66,1111122 
DISL,ioos:station:DISL:DISL:1,2009-06-02T05:00:00Z,30.2513,-88.0778,5.456,6.86,1111122 
DISL,ioos:station:DISL:DISL:1,2009-06-02T05:30:00Z,30.2513,-88.0778,5.475,7.04,1111122 
DISL,ioos:station:DISL:DISL:1,2009-06-02T06:00:00Z,30.2513,-88.0778,5.548,7.37,1111122 
DISL,ioos:station:DISL:DISL:1,2009-06-02T06:30:00Z,30.2513,-88.0778,5.586,7.33,1111122 
DISL,ioos:station:DISL:DISL:1,2009-06-02T07:00:00Z,30.2513,-88.0778,5.643,7.62,1111122 
DISL,ioos:station:DISL:DISL:1,2009-06-02T07:30:00Z,30.2513,-88.0778,5.711,8.71,1111122 
DISL,ioos:station:DISL:DISL:1,2009-06-02T08:00:00Z,30.2513,-88.0778,5.713,8.69,1111122 
DISL,ioos:station:DISL:DISL:1,2009-06-02T08:30:00Z,30.2513,-88.0778,5.71,8.92,1111122 
DISL,ioos:station:DISL:DISL:1,2009-06-02T09:00:00Z,30.2513,-88.0778,5.707,9.56,1111122 
DISL,ioos:station:DISL:DISL:1,2009-06-02T09:30:00Z,30.2513,-88.0778,5.742,7.75,1111122 
DISL,ioos:station:DISL:DISL:1,2009-06-02T10:00:00Z,30.2513,-88.0778,5.783,7.63,1111122 
DISL,ioos:station:DISL:DISL:1,2009-06-02T10:30:00Z,30.2513,-88.0778,5.845,7.95,1111122 
DISL,ioos:station:DISL:DISL:1,2009-06-02T11:00:00Z,30.2513,-88.0778,5.987,8.04,1111122 
DISL,ioos:station:DISL:DISL:1,2009-06-02T11:30:00Z,30.2513,-88.0778,5.903,8.34,1111122 
DISL,ioos:station:DISL:DISL:1,2009-06-02T12:00:00Z,30.2513,-88.0778,5.993,8.24,1111122 
DISL,ioos:station:DISL:DISL:1,2009-06-02T12:30:00Z,30.2513,-88.0778,5.999,8.25,1111122 
DISL,ioos:station:DISL:DISL:1,2009-06-02T13:00:00Z,30.2513,-88.0778,5.982,7.99,1111122 
DISL,ioos:station:DISL:DISL:1,2009-06-02T13:30:00Z,30.2513,-88.0778,6.004,5.52,1111122 
DISL,ioos:station:DISL:DISL:1,2009-06-02T14:00:00Z,30.2513,-88.0778,6.028,4.99,1111122 
DISL,ioos:station:DISL:DISL:1,2009-06-02T14:30:00Z,30.2513,-88.0778,6.015,4.57,1111122 
DISL,ioos:station:DISL:DISL:1,2009-06-02T15:00:00Z,30.2513,-88.0778,5.912,4.43,1111122 
DISL,ioos:station:DISL:DISL:1,2009-06-02T15:30:00Z,30.2513,-88.0778,5.838,4.37,1111122 
DISL,ioos:station:DISL:DISL:1,2009-06-02T16:00:00Z,30.2513,-88.0778,5.824,4.28,1111122 
DISL,ioos:station:DISL:DISL:1,2009-06-02T16:30:00Z,30.2513,-88.0778,5.696,4.19,1111122 
DISL,ioos:station:DISL:DISL:1,2009-06-02T17:00:00Z,30.2513,-88.0778,5.631,4.13,1111122 
DISL,ioos:station:DISL:DISL:1,2009-06-02T17:30:00Z,30.2513,-88.0778,5.479,4.01,1111122 
DISL,ioos:station:DISL:DISL:1,2009-06-02T18:00:00Z,30.2513,-88.0778,5.383,3.9,1111122 
DISL,ioos:station:DISL:DISL:1,2009-06-02T18:30:00Z,30.2513,-88.0778,5.258,3.84,1111122 
DISL,ioos:station:DISL:DISL:1,2009-06-02T19:00:00Z,30.2513,-88.0778,5.172,3.79,1111122 
DISL,ioos:station:DISL:DISL:1,2009-06-02T19:30:00Z,30.2513,-88.0778,5.083,3.76,1111122 
DISL,ioos:station:DISL:DISL:1,2009-06-02T20:00:00Z,30.2513,-88.0778,5.045,3.7,1111122 
DISL,ioos:station:DISL:DISL:1,2009-06-02T20:30:00Z,30.2513,-88.0778,4.959,3.61,1111122 
DISL,ioos:station:DISL:DISL:1,2009-06-02T21:00:00Z,30.2513,-88.0778,4.931,3.59,1111122 
DISL,ioos:station:DISL:DISL:1,2009-06-02T21:30:00Z,30.2513,-88.0778,4.874,3.58,1111122 
DISL,ioos:station:DISL:DISL:1,2009-06-02T22:00:00Z,30.2513,-88.0778,4.872,3.59,1111122 
DISL,ioos:station:DISL:DISL:1,2009-06-02T22:30:00Z,30.2513,-88.0778,4.821,3.61,1111122 
DISL,ioos:station:DISL:DISL:1,2009-06-02T23:00:00Z,30.2513,-88.0778,4.904,4.15,1111122 
DISL,ioos:station:DISL:DISL:1,2009-06-02T23:30:00Z,30.2513,-88.0778,4.985,4.52,1111122 
DISL,ioos:station:DISL:DISL:1,2009-06-03T00:00:00Z,30.2513,-88.0778,5.012,5.24,1111122 
DISL,ioos:station:DISL:DISL:1,2009-06-03T00:30:00Z,30.2513,-88.0778,5.008,6.15,1111122 
DISL,ioos:station:DISL:DISL:1,2009-06-03T01:00:00Z,30.2513,-88.0778,5.071,6.17,1111122 
DISL,ioos:station:DISL:DISL:1,2009-06-03T01:30:00Z,30.2513,-88.0778,5.133,6.35,1111122 
DISL,ioos:station:DISL:DISL:1,2009-06-03T02:00:00Z,30.2513,-88.0778,5.202,6.66,1111122 
DISL,ioos:station:DISL:DISL:1,2009-06-03T02:30:00Z,30.2513,-88.0778,5.204,7.02,1111122 
DISL,ioos:station:DISL:DISL:1,2009-06-03T03:00:00Z,30.2513,-88.0778,5.208,7.15,1111122 
DISL,ioos:station:DISL:DISL:1,2009-06-03T03:30:00Z,30.2513,-88.0778,5.313,7.85,1111122 
DISL,ioos:station:DISL:DISL:1,2009-06-03T04:00:00Z,30.2513,-88.0778,5.265,7.92,1111122 
DISL,ioos:station:DISL:DISL:1,2009-06-03T04:30:00Z,30.2513,-88.0778,5.343,7.52,1111122 
DISL,ioos:station:DISL:DISL:1,2009-06-03T05:00:00Z,30.2513,-88.0778,5.392,7.5,1111122 
DISL,ioos:station:DISL:DISL:1,2009-06-03T05:30:00Z,30.2513,-88.0778,5.502,7.4,1111122 
DISL,ioos:station:DISL:DISL:1,2009-06-03T06:00:00Z,30.2513,-88.0778,5.579,8.17,1111122 
DISL,ioos:station:DISL:DISL:1,2009-06-03T06:30:00Z,30.2513,-88.0778,5.599,7.12,1111122 
DISL,ioos:station:DISL:DISL:1,2009-06-03T07:00:00Z,30.2513,-88.0778,5.609,7.78,1111122 
DISL,ioos:station:DISL:DISL:1,2009-06-03T07:30:00Z,30.2513,-88.0778,5.587,8.56,1111122 
DISL,ioos:station:DISL:DISL:1,2009-06-03T08:00:00Z,30.2513,-88.0778,5.612,6.98,1111122 
DISL,ioos:station:DISL:DISL:1,2009-06-03T08:30:00Z,30.2513,-88.0778,5.76,7.37,1111122 
DISL,ioos:station:DISL:DISL:1,2009-06-03T09:00:00Z,30.2513,-88.0778,5.899,12.78,1111122 
DISL,ioos:station:DISL:DISL:1,2009-06-03T09:30:00Z,30.2513,-88.0778,6.026,12.64,1111122 
DISL,ioos:station:DISL:DISL:1,2009-06-03T10:00:00Z,30.2513,-88.0778,6.026,11.42,1111122 
DISL,ioos:station:DISL:DISL:1,2009-06-03T10:30:00Z,30.2513,-88.0778,6.102,10.6,1111122 
DISL,ioos:station:DISL:DISL:1,2009-06-03T11:00:00Z,30.2513,-88.0778,6.204,9.78,1111122 
DISL,ioos:station:DISL:DISL:1,2009-06-03T11:30:00Z,30.2513,-88.0778,6.142,8.3,1111122 
DISL,ioos:station:DISL:DISL:1,2009-06-03T12:00:00Z,30.2513,-88.0778,6.167,7.16,1111122 
DISL,ioos:station:DISL:DISL:1,2009-06-03T12:30:00Z,30.2513,-88.0778,6.017,6.92,1111122 
DISL,ioos:station:DISL:DISL:1,2009-06-03T13:00:00Z,30.2513,-88.0778,6.054,7.49,1111122 
DISL,ioos:station:DISL:DISL:1,2009-06-03T13:30:00Z,30.2513,-88.0778,6.124,7.5,1111122 
DISL,ioos:station:DISL:DISL:1,2009-06-03T14:00:00Z,30.2513,-88.0778,6.147,7.47,1111122 
DISL,ioos:station:DISL:DISL:1,2009-06-03T14:30:00Z,30.2513,-88.0778,6.162,7.24,1111122 
DISL,ioos:station:DISL:DISL:1,2009-06-03T15:00:00Z,30.2513,-88.0778,6.184,6.77,1111122 
DISL,ioos:station:DISL:DISL:1,2009-06-03T15:30:00Z,30.2513,-88.0778,6.099,6.82,1111122 
DISL,ioos:station:DISL:DISL:1,2009-06-03T16:00:00Z,30.2513,-88.0778,5.986,6.67,1111122 
DISL,ioos:station:DISL:DISL:1,2009-06-03T16:30:00Z,30.2513,-88.0778,5.823,6.48,1111122 
DISL,ioos:station:DISL:DISL:1,2009-06-03T17:00:00Z,30.2513,-88.0778,5.814,6.36,1111122 
DISL,ioos:station:DISL:DISL:1,2009-06-03T17:30:00Z,30.2513,-88.0778,5.642,6.3,1111122 
DISL,ioos:station:DISL:DISL:1,2009-06-03T18:00:00Z,30.2513,-88.0778,5.524,6.37,1111122 
DISL,ioos:station:DISL:DISL:1,2009-06-03T18:30:00Z,30.2513,-88.0778,5.447,6.24,1111122 
DISL,ioos:station:DISL:DISL:1,2009-06-03T19:00:00Z,30.2513,-88.0778,5.352,6.08,1111122 
DISL,ioos:station:DISL:DISL:1,2009-06-03T19:30:00Z,30.2513,-88.0778,5.241,5.91,1111122 
DISL,ioos:station:DISL:DISL:1,2009-06-03T20:00:00Z,30.2513,-88.0778,5.15,5.57,1111122 
DISL,ioos:station:DISL:DISL:1,2009-06-03T20:30:00Z,30.2513,-88.0778,5.133,5.48,1111122 
DISL,ioos:station:DISL:DISL:1,2009-06-03T21:00:00Z,30.2513,-88.0778,5.11,5.36,1111122 
DISL,ioos:station:DISL:DISL:1,2009-06-03T21:30:00Z,30.2513,-88.0778,5.04,5.33,1111122 
DISL,ioos:station:DISL:DISL:1,2009-06-03T22:00:00Z,30.2513,-88.0778,4.918,5.28,1111122 
DISL,ioos:station:DISL:DISL:1,2009-06-03T22:30:00Z,30.2513,-88.0778,4.923,5.28,1111122 
DISL,ioos:station:DISL:DISL:1,2009-06-03T23:00:00Z,30.2513,-88.0778,4.931,5.26,1111122 
DISL,ioos:station:DISL:DISL:1,2009-06-03T23:30:00Z,30.2513,-88.0778,4.919,5.27,1111122 
DISL,ioos:station:DISL:DISL:1,2009-06-04T00:00:00Z,30.2513,-88.0778,4.934,5.26,1111122 
DISL,ioos:station:DISL:DISL:1,2009-06-04T00:30:00Z,30.2513,-88.0778,4.959,5.28,1111122 
DISL,ioos:station:DISL:DISL:1,2009-06-04T01:00:00Z,30.2513,-88.0778,5.076,5.28,1111122 
DISL,ioos:station:DISL:DISL:1,2009-06-04T01:30:00Z,30.2513,-88.0778,5.17,5.43,1111122 
DISL,ioos:station:DISL:DISL:1,2009-06-04T02:00:00Z,30.2513,-88.0778,5.177,5.54,1111122 
DISL,ioos:station:DISL:DISL:1,2009-06-04T02:30:00Z,30.2513,-88.0778,5.207,5.51,1111122 
DISL,ioos:station:DISL:DISL:1,2009-06-04T03:00:00Z,30.2513,-88.0778,5.317,5.62,1111122 
DISL,ioos:station:DISL:DISL:1,2009-06-04T03:30:00Z,30.2513,-88.0778,5.37,5.75,1111122 
DISL,ioos:station:DISL:DISL:1,2009-06-04T04:00:00Z,30.2513,-88.0778,5.45,5.66,1111122 
DISL,ioos:station:DISL:DISL:1,2009-06-04T04:30:00Z,30.2513,-88.0778,5.499,5.63,1111122 
DISL,ioos:station:DISL:DISL:1,2009-06-04T05:00:00Z,30.2513,-88.0778,5.574,5.5,1111122 
DISL,ioos:station:DISL:DISL:1,2009-06-04T05:30:00Z,30.2513,-88.0778,5.689,5.45,1111122 
DISL,ioos:station:DISL:DISL:1,2009-06-04T06:00:00Z,30.2513,-88.0778,5.722,5.36,1111122 
DISL,ioos:station:DISL:DISL:1,2009-06-04T06:30:00Z,30.2513,-88.0778,5.946,5.74,1111122 
DISL,ioos:station:DISL:DISL:1,2009-06-04T07:00:00Z,30.2513,-88.0778,5.916,11.08,1111122 
DISL,ioos:station:DISL:DISL:1,2009-06-04T07:30:00Z,30.2513,-88.0778,5.912,11.58,1111122 
DISL,ioos:station:DISL:DISL:1,2009-06-04T08:00:00Z,30.2513,-88.0778,6.026,12.05,1111122 
DISL,ioos:station:DISL:DISL:1,2009-06-04T08:30:00Z,30.2513,-88.0778,6.138,14.09,1111122 
DISL,ioos:station:DISL:DISL:1,2009-06-04T09:00:00Z,30.2513,-88.0778,6.198,11.84,1111122 
DISL,ioos:station:DISL:DISL:1,2009-06-04T09:30:00Z,30.2513,-88.0778,6.25,11.43,1111122 
DISL,ioos:station:DISL:DISL:1,2009-06-04T10:00:00Z,30.2513,-88.0778,6.275,15.3,1111122 
DISL,ioos:station:DISL:DISL:1,2009-06-04T10:30:00Z,30.2513,-88.0778,6.361,16.17,1111122 
DISL,ioos:station:DISL:DISL:1,2009-06-04T11:00:00Z,30.2513,-88.0778,6.518,15.08,1111122 
DISL,ioos:station:DISL:DISL:1,2009-06-04T11:30:00Z,30.2513,-88.0778,6.487,17.01,1111122 
DISL,ioos:station:DISL:DISL:1,2009-06-04T12:00:00Z,30.2513,-88.0778,6.512,10.09,1111122 
DISL,ioos:station:DISL:DISL:1,2009-06-04T12:30:00Z,30.2513,-88.0778,6.539,8.25,1111122 
DISL,ioos:station:DISL:DISL:1,2009-06-04T13:00:00Z,30.2513,-88.0778,6.552,8.14,1111122 
DISL,ioos:station:DISL:DISL:1,2009-06-04T13:30:00Z,30.2513,-88.0778,6.552,8.73,1111122 
DISL,ioos:station:DISL:DISL:1,2009-06-04T14:00:00Z,30.2513,-88.0778,6.514,8.23,1111122 
DISL,ioos:station:DISL:DISL:1,2009-06-04T14:30:00Z,30.2513,-88.0778,6.413,8.12,1111122 
DISL,ioos:station:DISL:DISL:1,2009-06-04T15:00:00Z,30.2513,-88.0778,6.411,8.38,1111122 
DISL,ioos:station:DISL:DISL:1,2009-06-04T15:30:00Z,30.2513,-88.0778,6.343,7.6,1111122 
DISL,ioos:station:DISL:DISL:1,2009-06-04T16:00:00Z,30.2513,-88.0778,6.213,8.25,1111122 
DISL,ioos:station:DISL:DISL:1,2009-06-04T16:30:00Z,30.2513,-88.0778,6.151,7.48,1111122 
DISL,ioos:station:DISL:DISL:1,2009-06-04T17:00:00Z,30.2513,-88.0778,6.039,6.36,1111122 
DISL,ioos:station:DISL:DISL:1,2009-06-04T17:30:00Z,30.2513,-88.0778,6.058,7.48,1111122 
DISL,ioos:station:DISL:DISL:1,2009-06-04T18:00:00Z,30.2513,-88.0778,5.719,8.32,1111122 
DISL,ioos:station:DISL:DISL:1,2009-06-04T18:30:00Z,30.2513,-88.0778,5.577,8.22,1111122 
DISL,ioos:station:DISL:DISL:1,2009-06-04T19:00:00Z,30.2513,-88.0778,5.449,8.28,1111122 
DISL,ioos:station:DISL:DISL:1,2009-06-04T19:30:00Z,30.2513,-88.0778,5.282,8.33,1111122 
DISL,ioos:station:DISL:DISL:1,2009-06-04T20:00:00Z,30.2513,-88.0778,5.192,7.34,1111122 
DISL,ioos:station:DISL:DISL:1,2009-06-04T20:30:00Z,30.2513,-88.0778,5.109,7.05,1111122 
DISL,ioos:station:DISL:DISL:1,2009-06-04T21:00:00Z,30.2513,-88.0778,5.081,7.36,1111122 
DISL,ioos:station:DISL:DISL:1,2009-06-04T21:30:00Z,30.2513,-88.0778,4.961,7.09,1111122 
DISL,ioos:station:DISL:DISL:1,2009-06-04T22:00:00Z,30.2513,-88.0778,4.819,7.33,1111122 
DISL,ioos:station:DISL:DISL:1,2009-06-04T22:30:00Z,30.2513,-88.0778,4.78,7.49,1111122 
DISL,ioos:station:DISL:DISL:1,2009-06-04T23:00:00Z,30.2513,-88.0778,4.828,7.58,1111122 
DISL,ioos:station:DISL:DISL:1,2009-06-04T23:30:00Z,30.2513,-88.0778,4.879,8.44,1111122 
DISL,ioos:station:DISL:DISL:1,2009-06-05T00:00:00Z,30.2513,-88.0778,4.718,8.66,1111122 
DISL,ioos:station:DISL:DISL:1,2009-06-05T00:30:00Z,30.2513,-88.0778,4.715,8.71,1111122 
DISL,ioos:station:DISL:DISL:1,2009-06-05T01:00:00Z,30.2513,-88.0778,4.782,8.53,1111122 
DISL,ioos:station:DISL:DISL:1,2009-06-05T01:30:00Z,30.2513,-88.0778,4.839,8.21,1111122 
DISL,ioos:station:DISL:DISL:1,2009-06-05T02:00:00Z,30.2513,-88.0778,4.862,8.41,1111122 
DISL,ioos:station:DISL:DISL:1,2009-06-05T02:30:00Z,30.2513,-88.0778,5.051,8.58,1111122 
DISL,ioos:station:DISL:DISL:1,2009-06-05T03:00:00Z,30.2513,-88.0778,5.119,8.45,1111122 
DISL,ioos:station:DISL:DISL:1,2009-06-05T03:30:00Z,30.2513,-88.0778,5.087,8.32,1111122 
DISL,ioos:station:DISL:DISL:1,2009-06-05T04:00:00Z,30.2513,-88.0778,5.038,8.18,1111122 
DISL,ioos:station:DISL:DISL:1,2009-06-05T04:30:00Z,30.2513,-88.0778,5.105,9.13,1111122 
DISL,ioos:station:DISL:DISL:1,2009-06-05T05:00:00Z,30.2513,-88.0778,5.201,9.9,1111122 
DISL,ioos:station:DISL:DISL:1,2009-06-05T05:30:00Z,30.2513,-88.0778,5.249,9.52,1111122 
DISL,ioos:station:DISL:DISL:1,2009-06-05T06:00:00Z,30.2513,-88.0778,4.708,8.55,1111122 
DISL,ioos:station:DISL:DISL:1,2009-06-05T06:30:00Z,30.2513,-88.0778,5.293,8.18,1111122 
DISL,ioos:station:DISL:DISL:1,2009-06-05T07:00:00Z,30.2513,-88.0778,5.388,8.29,1111122 
DISL,ioos:station:DISL:DISL:1,2009-06-05T07:30:00Z,30.2513,-88.0778,5.46,8.7,1111122 
DISL,ioos:station:DISL:DISL:1,2009-06-05T08:00:00Z,30.2513,-88.0778,5.59,9.73,1111122 
DISL,ioos:station:DISL:DISL:1,2009-06-05T08:30:00Z,30.2513,-88.0778,5.654,10.16,1111122 
DISL,ioos:station:DISL:DISL:1,2009-06-05T09:00:00Z,30.2513,-88.0778,5.841,10.28,1111122 
DISL,ioos:station:DISL:DISL:1,2009-06-05T09:30:00Z,30.2513,-88.0778,5.922,10.55,1111122 
DISL,ioos:station:DISL:DISL:1,2009-06-05T10:00:00Z,30.2513,-88.0778,5.98,10.72,1111122 
DISL,ioos:station:DISL:DISL:1,2009-06-05T10:30:00Z,30.2513,-88.0778,6.086,11.18,1111122 
DISL,ioos:station:DISL:DISL:1,2009-06-05T11:00:00Z,30.2513,-88.0778,6.24,11.17,1111122 
DISL,ioos:station:DISL:DISL:1,2009-06-05T11:30:00Z,30.2513,-88.0778,6.268,11.88,1111122 
DISL,ioos:station:DISL:DISL:1,2009-06-05T12:00:00Z,30.2513,-88.0778,6.426,11.62,1111122 
DISL,ioos:station:DISL:DISL:1,2009-06-05T12:30:00Z,30.2513,-88.0778,6.399,11.85,1111122 
DISL,ioos:station:DISL:DISL:1,2009-06-05T13:00:00Z,30.2513,-88.0778,6.456,12.67,1111122 
DISL,ioos:station:DISL:DISL:1,2009-06-05T13:30:00Z,30.2513,-88.0778,6.396,12.13,1111122 
DISL,ioos:station:DISL:DISL:1,2009-06-05T14:00:00Z,30.2513,-88.0778,6.389,12.14,1111122 
DISL,ioos:station:DISL:DISL:1,2009-06-05T14:30:00Z,30.2513,-88.0778,6.44,11.98,1111122 
DISL,ioos:station:DISL:DISL:1,2009-06-05T15:00:00Z,30.2513,-88.0778,6.447,11.95,1111122 
DISL,ioos:station:DISL:DISL:1,2009-06-05T15:30:00Z,30.2513,-88.0778,6.371,11.92,1111122 
DISL,ioos:station:DISL:DISL:1,2009-06-05T16:00:00Z,30.2513,-88.0778,6.272,11.93,1111122 
DISL,ioos:station:DISL:DISL:1,2009-06-05T16:30:00Z,30.2513,-88.0778,6.159,11.96,1111122 
DISL,ioos:station:DISL:DISL:1,2009-06-05T17:00:00Z,30.2513,-88.0778,6.125,11.32,1111122 
DISL,ioos:station:DISL:DISL:1,2009-06-05T17:30:00Z,30.2513,-88.0778,6.039,11.85,1111122 
DISL,ioos:station:DISL:DISL:1,2009-06-05T18:00:00Z,30.2513,-88.0778,5.93,11.86,1111122 
DISL,ioos:station:DISL:DISL:1,2009-06-05T18:30:00Z,30.2513,-88.0778,5.799,11.73,1111122 
DISL,ioos:station:DISL:DISL:1,2009-06-05T19:00:00Z,30.2513,-88.0778,5.681,11.59,1111122 
DISL,ioos:station:DISL:DISL:1,2009-06-05T19:30:00Z,30.2513,-88.0778,5.481,11.37,1111122 
DISL,ioos:station:DISL:DISL:1,2009-06-05T20:00:00Z,30.2513,-88.0778,5.351,11.42,1111122 
DISL,ioos:station:DISL:DISL:1,2009-06-05T20:30:00Z,30.2513,-88.0778,5.216,8.96,1111122 
DISL,ioos:station:DISL:DISL:1,2009-06-05T21:00:00Z,30.2513,-88.0778,5.041,8.22,1111122 
DISL,ioos:station:DISL:DISL:1,2009-06-05T21:30:00Z,30.2513,-88.0778,5.129,7.67,1111122 
DISL,ioos:station:DISL:DISL:1,2009-06-05T22:00:00Z,30.2513,-88.0778,4.961,7.44,1111122 
DISL,ioos:station:DISL:DISL:1,2009-06-05T22:30:00Z,30.2513,-88.0778,4.918,8.37,1111122 
DISL,ioos:station:DISL:DISL:1,2009-06-05T23:00:00Z,30.2513,-88.0778,4.891,8.68,1111122 
DISL,ioos:station:DISL:DISL:1,2009-06-05T23:30:00Z,30.2513,-88.0778,4.723,9.04,1111122 
DISL,ioos:station:DISL:DISL:1,2009-06-06T00:00:00Z,30.2513,-88.0778,4.802,8.81,1111122 
DISL,ioos:station:DISL:DISL:1,2009-06-06T00:30:00Z,30.2513,-88.0778,4.803,9.16,1111122 
DISL,ioos:station:DISL:DISL:1,2009-06-06T01:00:00Z,30.2513,-88.0778,4.643,9.12,1111122 
DISL,ioos:station:DISL:DISL:1,2009-06-06T01:30:00Z,30.2513,-88.0778,4.566,9.55,1111122 
DISL,ioos:station:DISL:DISL:1,2009-06-06T02:00:00Z,30.2513,-88.0778,4.652,9.21,1111122 
DISL,ioos:station:DISL:DISL:1,2009-06-06T02:30:00Z,30.2513,-88.0778,4.672,7.8,1111122 
DISL,ioos:station:DISL:DISL:1,2009-06-06T03:00:00Z,30.2513,-88.0778,4.599,7.13,1111122 
DISL,ioos:station:DISL:DISL:1,2009-06-06T03:30:00Z,30.2513,-88.0778,4.674,7.04,1111122 
DISL,ioos:station:DISL:DISL:1,2009-06-06T04:00:00Z,30.2513,-88.0778,4.777,7.14,1111122 
DISL,ioos:station:DISL:DISL:1,2009-06-06T04:30:00Z,30.2513,-88.0778,4.803,7.73,1111122 
DISL,ioos:station:DISL:DISL:1,2009-06-06T05:00:00Z,30.2513,-88.0778,4.866,10.15,1111122 
DISL,ioos:station:DISL:DISL:1,2009-06-06T05:30:00Z,30.2513,-88.0778,4.945,8.66,1111122 
DISL,ioos:station:DISL:DISL:1,2009-06-06T06:00:00Z,30.2513,-88.0778,5.047,8.67,1111122 
DISL,ioos:station:DISL:DISL:1,2009-06-06T06:30:00Z,30.2513,-88.0778,5.127,8.87,1111122 
DISL,ioos:station:DISL:DISL:1,2009-06-06T07:00:00Z,30.2513,-88.0778,5.222,9.01,1111122 
DISL,ioos:station:DISL:DISL:1,2009-06-06T07:30:00Z,30.2513,-88.0778,5.327,8.95,1111122 
DISL,ioos:station:DISL:DISL:1,2009-06-06T08:00:00Z,30.2513,-88.0778,5.489,12.44,1111122 
DISL,ioos:station:DISL:DISL:1,2009-06-06T08:30:00Z,30.2513,-88.0778,5.603,19.47,1111122 
DISL,ioos:station:DISL:DISL:1,2009-06-06T09:00:00Z,30.2513,-88.0778,5.783,20.69,1111122 
DISL,ioos:station:DISL:DISL:1,2009-06-06T09:30:00Z,30.2513,-88.0778,5.873,26.69,1111122 
DISL,ioos:station:DISL:DISL:1,2009-06-06T10:00:00Z,30.2513,-88.0778,6.034,27.09,1111122 
DISL,ioos:station:DISL:DISL:1,2009-06-06T10:30:00Z,30.2513,-88.0778,6.196,27.12,1111122 
DISL,ioos:station:DISL:DISL:1,2009-06-06T11:00:00Z,30.2513,-88.0778,6.312,21.68,1111122 
DISL,ioos:station:DISL:DISL:1,2009-06-06T11:30:00Z,30.2513,-88.0778,6.444,19.78,1111122 
DISL,ioos:station:DISL:DISL:1,2009-06-06T12:00:00Z,30.2513,-88.0778,6.492,21.22,1111122 
DISL,ioos:station:DISL:DISL:1,2009-06-06T12:30:00Z,30.2513,-88.0778,6.579,21.82,1111122 
DISL,ioos:station:DISL:DISL:1,2009-06-06T13:00:00Z,30.2513,-88.0778,6.619,19.25,1111122 
DISL,ioos:station:DISL:DISL:1,2009-06-06T13:30:00Z,30.2513,-88.0778,6.721,15.89,1111122 
DISL,ioos:station:DISL:DISL:1,2009-06-06T14:00:00Z,30.2513,-88.0778,6.753,13.84,1111122 
DISL,ioos:station:DISL:DISL:1,2009-06-06T14:30:00Z,30.2513,-88.0778,6.724,12.85,1111122 
DISL,ioos:station:DISL:DISL:1,2009-06-06T15:00:00Z,30.2513,-88.0778,6.696,12.68,1111122 